Overview Statistics Trail Chart Weather Telemetry Raw packets
 

This is the latest recevied weather packets stored in our database for station/object N8BAP. If no packets are shown the sender has not sent any weather packets the latest 10 day(s).

<< 33 34 35 36 37 38 39 >>
Time Temp. Humidity Pressure Rain* Wind** Luminosity Snow
1788394508 28.33° C 72% 1021.5 hPa 0 mm - 0 W/m² -
1788394208 28.33° C 72% 1021.9 hPa 0 mm - 0 W/m² -
1788393903 28.33° C 73% 1021.9 hPa 0 mm - 2 W/m² -
1788393601 28.33° C 74% 1021.7 hPa 0 mm - 4 W/m² -
1788393296 29.44° C 73% 1021.7 hPa 0 mm - 6 W/m² -
1788392991 30° C 69% 1021.7 hPa 0 mm - 10 W/m² -
1788392686 30.56° C 66% 1021.7 hPa 0 mm - 14 W/m² -
1788392384 30.56° C 66% 1021.7 hPa 0 mm - 19 W/m² -
1788392078 30.56° C 65% 1021.7 hPa 0 mm - 24 W/m² -
1788391779 31.11° C 64% 1021.8 hPa 0 mm - 28 W/m² -
1788391473 31.11° C 64% 1021.6 hPa 0 mm - 33 W/m² -
1788391182 31.11° C 64% 1021.7 hPa 0 mm - 38 W/m² -
1788390868 31.11° C 64% 1022.1 hPa 0 mm - 44 W/m² -
1788390562 31.67° C 64% 1021.6 hPa 0 mm - 57 W/m² -
1788390262 31.67° C 63% 1021.7 hPa 0 mm - 62 W/m² -
1788389956 31.67° C 63% 1022.1 hPa 0 mm - 71 W/m² -
1788389651 31.67° C 62% 1021.9 hPa 0 mm - 79 W/m² -
1788389350 31.67° C 62% 1021.8 hPa 0 mm - 52 W/m² -
1788389049 32.22° C 60% 1021.8 hPa 0 mm - 58 W/m² -
1788388746 32.78° C 60% 1021.8 hPa 0 mm - 121 W/m² -
1788388441 32.78° C 59% 1021.9 hPa 0 mm - 129 W/m² -
1788388136 32.78° C 57% 1021.8 hPa 0 mm - 138 W/m² -
1788387834 32.78° C 57% 1021.9 hPa 0 mm - 147 W/m² -
1788387534 32.78° C 57% 1021.7 hPa 0 mm - 156 W/m² -
1788387233 33.33° C 56% 1021.8 hPa 0 mm - 183 W/m² -

* Rain latest hour (hover to see other rain measurements)
** Current wind speed in m/s (hover to see current wind gust speed)